Home > Weather > Vilnius > Past weeks

Flag for Lithuania Weather for the Past 2 Weeks in Vilnius, Lithuania

Now
61 °F

Broken clouds.


Feels Like: 61 °F
Forecast: 45 / 67 °F
Wind: 2 mph from North

Location: Vilnius Airport

Current Time: May 3, 2016 at 12:40:52 PM

Latest Report: May 3, 2016 at 11:50 AM


Visibility: N/A

Pressure: 30.07 "Hg

Humidity: 59%

Dew Point: 46 °F

Location of VilniusLocation

Historic Weather in Vilnius — Graph

°F

Vilnius Temperature Yesterday

Maximum temperature yesterday: 64 °F (at 4:20 PM)
Minimum temperature yesterday: 43 °F (at 5:50 AM)
Average temperature yesterday: 53 °F

High & Low Weather Summary for the Past Weeks

 TemperatureHumidityPressure
High64 °F (May 2, 4:20 PM)100% (Apr 19, 9:02 PM)30.27 "Hg (Apr 19, 9:02 PM)
Low30 °F (Apr 27, 3:20 AM)34% (Apr 21, 2:20 PM)29.56 "Hg (Apr 22, 10:20 AM)
Average43 °F78%29.92 "Hg
* Reported Apr 18 11:20 AM — May 3 11:20 AM, Vilnius, Weather by CustomWeather, © 2016

Note: Actual official high and low records may vary slightly from our data, if they occured in-between our weather recording intervals... More about our weather records

Advertising

Vilnius Weather History for the Previous 24 Hours

Scroll right to see more
 ConditionsComfort  
Time TempWeatherWind HumidityBarometerVisibility
11:20 AM
Tue, May 3
61 °FBroken clouds.2 mph59%30.07 "HgN/A
10:50 AM59 °FPartly sunny.5 mph63%30.07 "HgN/A
10:20 AM59 °FPassing clouds.3 mph68%30.09 "HgN/A
9:50 AM57 °FSunny.2 mph77%30.09 "Hg10 mi
9:20 AM55 °FSunny.2 mph82%30.09 "Hg10 mi
8:20 AM52 °FSunny.5 mph88%30.09 "Hg10 mi
8:04 AM50 °FPartly sunny.3 mph94%30.09 "HgN/A
7:20 AM46 °FFog.1 mph100%30.09 "Hg2 mi
6:50 AM45 °FFog.1 mph93%30.09 "Hg0 mi
6:20 AM43 °FFog.1 mph93%30.09 "Hg0 mi
5:55 AM43 °FFog.2 mph100%30.09 "Hg0 mi
5:20 AM45 °FFog.2 mph100%30.09 "Hg1 mi
4:50 AM46 °FFog.1 mph93%30.09 "Hg2 mi
4:20 AM45 °FFog.1 mph100%30.12 "Hg0 mi
3:50 AM46 °FFog.2 mph93%30.12 "Hg2 mi
3:20 AM48 °FFog.1 mph94%30.12 "Hg2 mi
2:50 AM48 °FFog.1 mph94%30.12 "Hg2 mi
2:20 AM46 °FFog.2 mph93%30.12 "Hg2 mi
1:50 AM48 °FClear.3 mph94%30.12 "Hg4 mi
1:20 AM48 °FClear.2 mph94%30.12 "Hg4 mi
12:50 AM50 °FClear.2 mph88%30.12 "Hg4 mi
12:20 AM50 °FClear.3 mph88%30.12 "Hg10 mi
11:50 PM
Mon, May 2
50 °FClear.1 mph88%30.12 "Hg10 mi
11:20 PM52 °FClear.2 mph82%30.12 "Hg10 mi
10:50 PM54 °FClear.1 mph77%30.15 "Hg10 mi
10:20 PM54 °FClear.3 mph77%30.15 "Hg10 mi
9:50 PM54 °FSunny.1 mph77%30.15 "Hg10 mi
9:20 PM54 °FPartly sunny.2 mph77%30.15 "HgN/A
8:50 PM57 °FBroken clouds.7 mph67%30.15 "HgN/A
8:20 PM57 °FScattered showers. Broken clouds.5 mph72%30.15 "HgN/A
7:50 PM59 °FScattered showers. Broken clouds.5 mph63%30.15 "HgN/A
7:20 PM61 °FScattered showers. Partly sunny.5 mph59%30.15 "HgN/A
6:50 PM61 °FScattered showers. Broken clouds.5 mph55%30.15 "HgN/A
6:20 PM61 °FScattered showers. Partly sunny.8 mph55%30.15 "HgN/A
5:50 PM61 °FBroken clouds.5 mph59%30.15 "HgN/A
5:20 PM61 °FPartly sunny.6 mph59%30.15 "HgN/A
4:50 PM63 °FBroken clouds.5 mph56%30.15 "HgN/A
4:20 PM64 °FBroken clouds.2 mph43%30.18 "HgN/A
3:50 PM63 °FPassing clouds.5 mph49%30.18 "HgN/A
2:50 PM63 °FBroken clouds.9 mph56%30.18 "HgN/A
2:20 PM63 °FScattered clouds.6 mph52%30.18 "HgN/A
1:50 PM63 °FScattered clouds.3 mph52%30.21 "HgN/A
1:20 PM61 °FScattered clouds.2 mph59%30.21 "HgN/A
12:20 PM57 °FScattered clouds.5 mph72%30.21 "HgN/A
Weather by CustomWeather, © 2016

See weather overviewHow to use our weather pages